This is the latest recevied weather packets stored in our database for station/object K5KVN. If no packets are shown the sender has not sent any weather packets the latest 10 day(s).
| Time | Temp. | Humidity | Pressure | Rain* | Wind** | Luminosity | Snow |
|---|---|---|---|---|---|---|---|
| 1777832884 | 23.89° C | 54% | 1017.1 hPa | 0 mm | - | - | - |
| 1777832283 | 23.33° C | 55% | 1017.3 hPa | 0 mm | - | - | - |
| 1777831684 | 23.33° C | 59% | 1017.3 hPa | 0 mm | - | - | - |
| 1777831080 | 23.33° C | 55% | 1017.5 hPa | 0 mm | - | - | - |
| 1777830482 | 22.78° C | 57% | 1017.8 hPa | 0 mm | - | - | - |
| 1777829881 | 22.78° C | 56% | 1017.8 hPa | 0 mm | - | - | - |
| 1777829281 | 22.78° C | 56% | 1018 hPa | 0 mm | - | - | - |
| 1777828741 | 22.22° C | 55% | 1017.9 hPa | 0 mm | - | - | - |
| 1777828082 | 22.22° C | 53% | 1018.2 hPa | 0 mm | - | - | - |
| 1777827480 | 21.67° C | 53% | 1018.3 hPa | 0 mm | - | - | - |
| 1777826878 | 22.22° C | 51% | 1018.5 hPa | 0 mm | - | - | - |
| 1777826280 | 21.67° C | 52% | 1018.7 hPa | 0 mm | - | - | - |
| 1777825678 | 21.67° C | 57% | 1018.8 hPa | 0 mm | - | - | - |
| 1777825079 | 21.11° C | 53% | 1018.9 hPa | 0 mm | - | - | - |
| 1777824479 | 20.56° C | 55% | 1019.1 hPa | 0 mm | - | - | - |
| 1777823878 | 20.56° C | 55% | 1019.1 hPa | 0 mm | - | - | - |
| 1777823280 | 20° C | 55% | 1019.2 hPa | 0 mm | - | - | - |
| 1777822679 | 20° C | 54% | 1019.3 hPa | 0 mm | - | - | - |
| 1777822078 | 19.44° C | 52% | 1019.6 hPa | 0 mm | - | - | - |
| 1777821481 | 18.89° C | 53% | 1019.6 hPa | 0 mm | - | - | - |
| 1777820878 | 18.33° C | 57% | 1019.7 hPa | 0 mm | - | - | - |
| 1777820278 | 18.33° C | 55% | 1019.9 hPa | 0 mm | - | - | - |
| 1777819739 | 17.78° C | 56% | 1019.8 hPa | 0 mm | - | - | - |
| 1777819079 | 16.67° C | 59% | 1020 hPa | 0 mm | - | - | - |
| 1777818478 | 16.11° C | 60% | 1020.1 hPa | 0 mm | - | - | - |
* Rain latest hour (hover to see other rain measurements)
** Current wind speed in m/s (hover to see current wind gust speed)